Weather History for Springfield, OH

Change the Weather History Date:

Thursday, January 24, 2013

  Actual Average (KDAY) Record (KDAY)
Temperature  
Mean Temperature 13 °F 28 °F  
Max Temperature 19 °F 35 °F 71 °F (1943)
Min Temperature 7 °F 20 °F -19 °F (1963)
Degree Days  
Heating Degree Days 52 37  
Month to date heating degree days 905  
Since 1 July heating degree days 3064  
Cooling Degree Days 0 0  
Month to date cooling degree days 0  
Year to date cooling degree days 0  
Moisture  
Dew Point 6 °F    
Average Humidity 71    
Maximum Humidity 86    
Minimum Humidity 52    
Precipitation  
Precipitation 0.00 in 0.08 in 1.72 in (1937)
Month to date precipitation 2.15  
Year to date precipitation 2.15  
Snow  
Snow 0.00 in 0.20 in 4.90 in (1941)
Month to date snowfall 6.1  
Since 1 July snowfall 11.6  
Snow Depth -    
Sea Level Pressure  
Sea Level Pressure 30.41 in    
Wind  
Wind Speed 10 mph (North)    
Max Wind Speed 22 mph    
Max Gust Speed 26 mph    
Visibility 6 miles    
Events Snow    
T = Trace of Precipitation, MM = Missing Value Source: NWS Daily Summary

Daily Weather History Graph

Daily Weather History Graph

Search for Another Location

Airport:

Trip Planner

Search our weather history database for the weather conditions in past years. The results will help you decide how hot, cold, wet, or windy it might be!

Date:

Astronomy

Jan. 24, 2013 Rise Set
Actual Time 7:49 AM EST 5:45 PM EST
Civil Twilight 7:20 AM EST 6:14 PM EST
Nautical Twilight 6:48 AM EST 6:47 PM EST
Astronomical Twilight 6:16 AM EST 7:19 PM EST
Moon 3:47 PM EST (1/24) 5:46 AM EST (1/24)
Length of Visible Light 10h 53m
Length of Day
9h 55m
Waxing Gibbous, 94% of the Moon is Illuminated
Jan 24
Waxing Gibbous
Jan 26
Full
Feb 3
Last Quarter
Feb 10
New
Feb 17
First Quarter

Hourly Weather History & Observations

Time (EST) Temp. Windchill Dew Point Humidity Pressure Visibility Wind Dir Wind Speed Gust Speed Precip Events Conditions
12:05 AM 15.8 °F 5.1 °F 12.2 °F 86% 30.08 in 3.0 mi West 8.1 mph - 0.00 in Snow Light Snow
12:17 AM 15.8 °F 4.2 °F 12.2 °F 86% 30.09 in 2.5 mi West 9.2 mph - 0.00 in Snow Light Snow
12:49 AM 15.8 °F 2.1 °F 12.2 °F 86% 30.09 in 3.0 mi West 12.7 mph - 0.00 in Snow Light Snow
12:56 AM 16.2 °F 1.9 °F 12.0 °F 84% 30.15 in 3.0 mi WNW 13.8 mph - 0.00 in Snow Light Snow
1:46 AM 15.8 °F 1.4 °F 10.4 °F 79% 30.12 in 5.0 mi WNW 13.8 mph - 0.00 in Snow Light Snow
1:56 AM 16.2 °F 2.5 °F 10.0 °F 77% 30.18 in 5.0 mi WNW 12.7 mph - 0.00 in Snow Light Snow
2:56 AM 16.2 °F -1.4 °F 8.1 °F 70% 30.24 in 5.0 mi NNW 21.9 mph 26.5 mph 0.00 in Snow Light Snow
3:47 AM 14.0 °F -2.0 °F 6.8 °F 73% 30.23 in 7.0 mi NNW 16.1 mph 23.0 mph 0.00 in   Scattered Clouds
3:56 AM 13.1 °F -2.6 °F 6.1 °F 74% 30.30 in 7.0 mi NW 15.0 mph - 0.00 in   Partly Cloudy
4:56 AM 11.1 °F -5.7 °F 3.0 °F 70% 30.34 in 7.0 mi NNW 16.1 mph - N/A   Clear
5:56 AM 9.1 °F -7.0 °F 1.0 °F 70% 30.39 in 7.0 mi NNW 13.8 mph - N/A   Clear
6:56 AM 8.1 °F -7.0 °F 1.0 °F 73% 30.44 in 7.0 mi NNW 11.5 mph - N/A   Clear
7:56 AM 7.2 °F -5.4 °F 0.1 °F 73% 30.49 in 5.0 mi NNW 8.1 mph - N/A   Haze
8:56 AM 8.1 °F -5.3 °F 1.0 °F 73% 30.53 in 6.0 mi NNW 9.2 mph - N/A   Haze
9:56 AM 10.0 °F -0.9 °F 3.0 °F 73% 30.57 in 6.0 mi North 6.9 mph - N/A   Haze
10:56 AM 12.0 °F 1.5 °F 3.0 °F 67% 30.61 in 6.0 mi NNW 6.9 mph - N/A   Haze
1:56 PM 19.0 °F 12.3 °F 5.0 °F 54% 30.58 in 6.0 mi NE 4.6 mph - N/A   Haze
2:56 PM 19.0 °F - 4.1 °F 52% 30.57 in 6.0 mi Calm Calm - N/A   Haze
3:56 PM 19.0 °F 11.1 °F 5.0 °F 54% 30.57 in 6.0 mi NE 5.8 mph - N/A   Haze
4:56 PM 17.1 °F 7.6 °F 4.1 °F 57% 30.58 in 6.0 mi ENE 6.9 mph - N/A   Haze
5:56 PM 13.1 °F 5.4 °F 4.1 °F 67% 30.59 in 6.0 mi East 4.6 mph - N/A   Haze
6:56 PM 14.0 °F - 4.1 °F 65% 30.60 in 7.0 mi Calm Calm - N/A   Clear
7:56 PM 10.0 °F 1.8 °F 3.0 °F 73% 30.58 in 7.0 mi East 4.6 mph - N/A   Clear
8:56 PM 11.1 °F 3.1 °F 4.1 °F 73% 30.57 in 7.0 mi East 4.6 mph - N/A   Clear
9:56 PM 13.1 °F 1.8 °F 6.1 °F 74% 30.55 in 7.0 mi East 8.1 mph - N/A   Clear
10:56 PM 15.1 °F 3.3 °F 7.2 °F 71% 30.52 in 7.0 mi East 9.2 mph - N/A   Clear
11:56 PM 14.0 °F 2.9 °F 7.2 °F 74% 30.51 in 7.0 mi ESE 8.1 mph - N/A   Clear